COSMOS 1275 DEB, 27735

Orbit data source: Space-Track

COSMOS 1275 DEB, 27735 is space debris in LEO originally from a launch on Thu, 04 Jun 1981 UTC launched from the Plesetsk Missile And Space Complex (PKMTR). Debris objects in space refer to the collection of defunct objects orbiting the Earth. Examples of debris include non-operational satellites, rocket bodies, and fragments generated from explosions, collisions, or faulty payload assembly.

Loading next visibility...
Identifier
27735, 1981-053MQ
Orbit
LEO
Country
Flag of CISCIS
Related business
Manufacturer
Unknown
Mission
Spacecraft
Bus & Motor
Unknown
Mass
Unknown
Launch date (UTC)
1981-06-04 (45 years ago)
Launch vehicle
Unknown
Launch site
Plesetsk Missile And Space Complex (PKMTR)
Object type
Payload
Rocket body
Debris
Shape & HBR
Unknown shape, 0.1 m
Radar Cross Section
Small (<0.1 m²)

Expand to show TLE details & history
Last TLE update: 1 day ago

TLE from 1 day ago
0 COSMOS 1275 DEB
1 27735U 81053MQ  25351.76418248  .00001560  00000-0  13304-2 0  9992
2 27735  83.0474 349.7021 0095377  23.4292 156.4918 13.84529674599726
Epoch: 2025-12-17T18:20Z
TLE epoch observation values (Epoch: 2025-12-17T18:20:25.366Z)
Latitude
-0.46728°
Longitude
168.02374°
Altitude
1,015.034 km
Speed
7.312 km/s
True Right ascension
11h 19m 02s
True Declination
0° 27' 52"
Sunlit
Object was in daylight at epoch
Visualization orbit readout
Latitude
Unknown
Longitude
Unknown
Altitude
Unknown
Speed
Unknown
Apparent Right ascension
Unknown
Apparent Declination
Unknown
Sunlit
N/A
Visualization observer readout
Local Sidereal Time
21:33:33
Azimuth
Unknown
Elevation
Unknown
Doppler factor
Unknown
Orbital elements
Apogee altitude
1,014.841 km
Perigee altitude
875.15 km
Semi-major axis
7,323.133 km
Eccentricity
0.00954
Inclination
83.0474°
RAAN
349.7021°
Arg. of periapsis
23.4292°
True anomaly
156.92303°
Mean anomaly
156.4918°
Eccentric anomaly
156.70788°
Mean motion
3.46336 °/min
Orbital period
103.95 mins
BSTAR
0.0013304
Loading maneuver chart data...
Computing Atmospheric mass density...
Loading historical data...
Loading historical data...
Loading historical data...
Loading historical data...
Loading historical data...
Loading historical data...
Loading historical data...

Documentation

Showing up to 5 results
|